This is the latest recevied weather packets stored in our database for station/object KB4MOX. If no packets are shown the sender has not sent any weather packets the latest 10 day(s).
| Time | Temp. | Humidity | Pressure | Rain* | Wind** | Luminosity | Snow |
|---|---|---|---|---|---|---|---|
| 1778166895 | 20.56° C | 98% | 1011.6 hPa | 13.72 mm | - | 45 W/m² | - |
| 1778166592 | 20.56° C | 98% | 1011.5 hPa | 18.03 mm | - | 42 W/m² | - |
| 1778166289 | 20.56° C | 98% | 1011.2 hPa | 11.94 mm | - | 32 W/m² | - |
| 1778165985 | 20.56° C | 98% | 1011.2 hPa | 4.83 mm | - | 32 W/m² | - |
| 1778165681 | 20.56° C | 98% | 1010.9 hPa | 3.05 mm | - | 48 W/m² | - |
| 1778165378 | 20.56° C | 98% | 1011.1 hPa | 4.32 mm | - | 28 W/m² | - |
| 1778165075 | 20° C | 98% | 1010.6 hPa | 4.83 mm | - | 53 W/m² | - |
| 1778164772 | 20° C | 98% | 1010.6 hPa | 4.83 mm | - | 36 W/m² | - |
| 1778164470 | 20° C | 98% | 1010.7 hPa | 4.83 mm | - | 28 W/m² | - |
| 1778164166 | 20° C | 98% | 1010.9 hPa | 1.78 mm | - | 28 W/m² | - |
| 1778163862 | 20° C | 98% | 1010.8 hPa | 0 mm | - | 38 W/m² | - |
| 1778163560 | 20° C | 98% | 1010.8 hPa | 1.27 mm | - | 23 W/m² | - |
| 1778163255 | 20° C | 98% | 1010.7 hPa | 3.05 mm | - | 34 W/m² | - |
| 1778162952 | 20° C | 98% | 1011 hPa | 7.87 mm | - | 23 W/m² | - |
| 1778162649 | 20° C | 98% | 1010.7 hPa | 6.1 mm | - | 19 W/m² | - |
| 1778162347 | 20° C | 98% | 1010.9 hPa | 0 mm | - | 32 W/m² | - |
| 1778162043 | 20° C | 98% | 1010.8 hPa | 0 mm | - | 10 W/m² | - |
| 1778161741 | 19.44° C | 98% | 1011 hPa | 0 mm | - | 8 W/m² | - |
| 1778161437 | 19.44° C | 98% | 1010.8 hPa | 0 mm | - | 10 W/m² | - |
| 1778161133 | 19.44° C | 98% | 1010.7 hPa | 1.78 mm | - | 30 W/m² | - |
| 1778160828 | 19.44° C | 98% | 1010.9 hPa | 1.78 mm | - | 15 W/m² | - |
| 1778160528 | 19.44° C | 98% | 1010.7 hPa | 0 mm | - | 8 W/m² | - |
| 1778160224 | 19.44° C | 98% | 1011 hPa | 1.27 mm | - | 7 W/m² | - |
| 1778159921 | 19.44° C | 98% | 1011.6 hPa | 0 mm | - | 5 W/m² | - |
| 1778159617 | 19.44° C | 98% | 1011.2 hPa | 0 mm | - | 5 W/m² | - |
* Rain latest hour (hover to see other rain measurements)
** Current wind speed in m/s (hover to see current wind gust speed)